�������l�o���
Date,Time,MP-1(��Sv/h),MP-2(��Sv/h),MP-3(��Sv/h),MP-4(��Sv/h),MP-5(��Sv/h),MP-6(��Sv/h),MP-7(��Sv/h),MP-8(��Sv/h),����,����(m/s),���J
2017/07/06,00:00,0.947,1.495,1.003,1.799,1.237,0.524,0.950,0.875,-,CALM,��
2017/07/06,00:10,0.945,1.496,1.002,1.804,1.237,0.525,0.950,0.877,��쓌,0.6,��
2017/07/06,00:20,0.946,1.495,1.001,1.802,1.234,0.523,0.948,0.878,�k�k��,0.6,��
2017/07/06,00:30,0.948,1.496,1.000,1.799,1.237,0.524,0.950,0.877,�k��,0.6,��
2017/07/06,00:40,0.947,1.495,1.002,1.804,1.236,0.524,0.951,0.877,-,CALM,��
2017/07/06,00:50,0.948,1.494,1.002,1.799,1.238,0.525,0.950,0.877,�k��,1.2,��
2017/07/06,01:00,0.947,1.495,1.003,1.802,1.234,0.524,0.950,0.878,�k��,1.5,��
2017/07/06,01:10,0.947,1.496,1.004,1.800,1.236,0.524,0.950,0.875,�k��,2.6,��
2017/07/06,01:20,0.946,1.493,1.005,1.796,1.236,0.522,0.949,0.877,�k�k��,3.6,��
2017/07/06,01:30,0.947,1.492,1.003,1.800,1.236,0.525,0.950,0.877,�k��,1.9,��
2017/07/06,01:40,0.947,1.496,1.006,1.802,1.237,0.524,0.951,0.878,�k,1.4,��
2017/07/06,01:50,0.947,1.494,1.002,1.802,1.237,0.522,0.948,0.877,�k�k��,2.0,��
2017/07/06,02:00,0.948,1.493,1.003,1.802,1.235,0.524,0.948,0.877,�k�k��,2.3,��
2017/07/06,02:10,0.946,1.494,1.002,1.803,1.235,0.524,0.951,0.881,�k�k��,2.9,��
2017/07/06,02:20,0.949,1.495,1.002,1.800,1.236,0.522,0.950,0.880,�k�k��,1.7,��
2017/07/06,02:30,0.946,1.496,1.004,1.802,1.237,0.524,0.949,0.877,-,CALM,��
2017/07/06,02:40,0.948,1.496,1.003,1.803,1.238,0.525,0.949,0.879,�k�k��,1.7,��
2017/07/06,02:50,0.946,1.494,1.003,1.801,1.237,0.523,0.951,0.878,�k�k��,1.9,��
2017/07/06,03:00,0.947,1.494,1.004,1.803,1.233,0.523,0.950,0.878,�k,1.7,��
2017/07/06,03:10,0.946,1.496,1.003,1.803,1.239,0.523,0.949,0.877,�k��,1.5,��
2017/07/06,03:20,0.947,1.496,1.004,1.802,1.235,0.522,0.950,0.877,�k,1.4,��
2017/07/06,03:30,0.946,1.494,1.002,1.802,1.234,0.522,0.947,0.878,�k��,1.1,��
2017/07/06,03:40,0.946,1.496,1.005,1.803,1.236,0.523,0.950,0.877,��,0.9,��
2017/07/06,03:50,0.948,1.496,1.003,1.799,1.236,0.521,0.950,0.877,���k��,1.1,��
2017/07/06,04:00,0.947,1.497,1.004,1.802,1.235,0.522,0.950,0.877,��,1.2,��
2017/07/06,04:10,0.949,1.495,1.001,1.799,1.235,0.523,0.949,0.878,���쓌,1.1,��
2017/07/06,04:20,0.947,1.493,1.003,1.799,1.236,0.521,0.948,0.878,��,0.6,��
2017/07/06,04:30,0.948,1.497,1.002,1.800,1.234,0.523,0.948,0.878,��,0.6,��
2017/07/06,04:40,0.948,1.493,1.004,1.801,1.237,0.521,0.948,0.877,�쐼,0.9,��
2017/07/06,04:50,0.945,1.493,1.003,1.800,1.234,0.522,0.949,0.878,��쐼,1.2,��
2017/07/06,05:00,0.947,1.494,1.003,1.801,1.236,0.521,0.948,0.878,�쐼,1.2,��
2017/07/06,05:10,0.948,1.495,1.002,1.801,1.235,0.522,0.949,0.877,�쐼,1.5,��
2017/07/06,05:20,0.947,1.495,1.002,1.804,1.235,0.523,0.950,0.879,�쐼,1.1,��
2017/07/06,05:30,0.948,1.495,1.003,1.801,1.234,0.520,0.949,0.879,��쐼,1.1,��
2017/07/06,05:40,0.946,1.498,1.001,1.804,1.235,0.522,0.949,0.878,��,1.2,��
2017/07/06,05:50,0.948,1.499,1.002,1.802,1.234,0.523,0.949,0.879,��,0.8,��
2017/07/06,06:00,0.946,1.496,1.003,1.802,1.236,0.522,0.952,0.876,�k��,1.1,��
2017/07/06,06:10,0.947,1.495,1.003,1.803,1.237,0.521,0.950,0.880,���k��,0.9,��
2017/07/06,06:20,0.948,1.498,1.002,1.804,1.236,0.521,0.951,0.878,�쐼,0.6,��
2017/07/06,06:30,0.947,1.497,1.001,1.805,1.236,0.522,0.951,0.880,��쓌,1.1,��
2017/07/06,06:40,0.946,1.497,1.005,1.805,1.238,0.521,0.952,0.879,��,1.5,��
2017/07/06,06:50,0.948,1.495,1.006,1.803,1.239,0.523,0.954,0.879,��쓌,2.0,��
2017/07/06,07:00,0.947,1.494,1.005,1.802,1.235,0.523,0.952,0.878,��쓌,1.7,��
2017/07/06,07:10,0.948,1.496,1.005,1.805,1.236,0.521,0.953,0.880,��쓌,2.0,��
2017/07/06,07:20,0.948,1.498,1.003,1.806,1.238,0.521,0.953,0.878,��쓌,2.3,��
2017/07/06,07:30,0.949,1.498,1.004,1.805,1.238,0.519,0.950,0.880,��쓌,2.9,��
2017/07/06,07:40,0.948,1.500,1.007,1.807,1.237,0.520,0.951,0.878,��쓌,3.7,��
2017/07/06,07:50,0.947,1.501,1.005,1.806,1.238,0.520,0.949,0.878,�쓌,2.9,��
2017/07/06,08:00,0.948,1.504,1.006,1.805,1.239,0.520,0.949,0.877,��쓌,3.3,��
2017/07/06,08:10,0.948,1.501,1.006,1.807,1.236,0.521,0.950,0.876,��쓌,3.9,��
2017/07/06,08:20,0.950,1.505,1.006,1.810,1.235,0.521,0.953,0.878,��쓌,4.1,��
2017/07/06,08:30,0.950,1.503,1.006,1.809,1.238,0.521,0.951,0.877,��쓌,4.0,��
2017/07/06,08:40,0.950,1.505,1.008,1.811,1.239,0.523,0.951,0.878,��쓌,3.9,��
2017/07/06,08:50,0.950,1.505,1.005,1.808,1.237,0.522,0.951,0.876,��쓌,5.0,��
2017/07/06,09:00,0.953,1.505,1.001,1.807,1.239,0.520,0.950,0.877,��쓌,4.3,��
2017/07/06,09:10,0.952,1.507,1.003,1.808,1.241,0.522,0.950,0.877,��쓌,5.1,��
2017/07/06,09:20,0.953,1.507,1.007,1.811,1.243,0.524,0.951,0.878,��쓌,5.8,��
2017/07/06,09:30,0.953,1.509,1.005,1.809,1.241,0.522,0.951,0.877,��쓌,5.1,��
2017/07/06,09:40,0.953,1.511,1.004,1.810,1.242,0.523,0.953,0.878,��쓌,4.4,��
2017/07/06,09:50,0.955,1.510,1.003,1.812,1.242,0.524,0.953,0.879,��쓌,6.4,��
2017/07/06,10:00,0.956,1.512,1.006,1.815,1.244,0.523,0.952,0.877,��쓌,5.5,��
2017/07/06,10:10,0.955,1.512,1.006,1.813,1.244,0.524,0.951,0.879,��쓌,7.3,��
2017/07/06,10:20,0.954,1.512,1.007,1.812,1.244,0.524,0.954,0.880,��쓌,5.4,��
2017/07/06,10:30,0.955,1.513,1.008,1.812,1.246,0.525,0.954,0.877,��쓌,5.5,��
2017/07/06,10:40,0.958,1.517,1.007,1.812,1.248,0.525,0.953,0.878,��쓌,4.9,��
2017/07/06,10:50,0.958,1.515,1.012,1.815,1.250,0.526,0.953,0.881,��쓌,4.9,��
2017/07/06,11:00,0.958,1.520,1.008,1.814,1.247,0.526,0.955,0.881,��쓌,6.2,��
2017/07/06,11:10,0.957,1.519,1.007,1.814,1.250,0.525,0.955,0.880,��쓌,5.8,��
2017/07/06,11:20,0.959,1.519,1.001,1.809,1.248,0.524,0.955,0.880,��쓌,8.0,��
2017/07/06,11:30,0.960,1.522,1.009,1.812,1.249,0.525,0.955,0.881,��쓌,6.8,��
2017/07/06,11:40,0.958,1.521,1.008,1.811,1.249,0.526,0.956,0.879,��쓌,6.4,��
2017/07/06,11:50,0.960,1.520,1.011,1.812,1.252,0.527,0.952,0.880,��쓌,6.2,��
2017/07/06,12:00,0.963,1.522,1.012,1.814,1.251,0.526,0.954,0.879,��쓌,6.3,��
2017/07/06,12:10,0.962,1.525,1.011,1.814,1.254,0.525,0.955,0.881,�쓌,5.9,��
2017/07/06,12:20,0.962,1.524,1.013,1.812,1.252,0.524,0.954,0.880,��쓌,7.3,��
2017/07/06,12:30,0.961,1.524,1.014,1.815,1.253,0.526,0.954,0.879,��쓌,6.5,��
2017/07/06,12:40,0.963,1.524,1.014,1.818,1.254,0.528,0.954,0.880,��쓌,6.9,��
2017/07/06,12:50,0.964,1.527,1.015,1.818,1.255,0.528,0.954,0.881,��쓌,8.1,��
2017/07/06,13:00,0.963,1.527,1.012,1.817,1.259,0.528,0.956,0.881,��쓌,7.0,��
2017/07/06,13:10,0.967,1.528,1.005,1.816,1.258,0.527,0.956,0.882,��쓌,6.5,��
2017/07/06,13:20,0.966,1.529,1.014,1.820,1.257,0.525,0.956,0.882,��쓌,7.0,��
2017/07/06,13:30,0.965,1.529,1.012,1.820,1.258,0.527,0.955,0.881,��쓌,6.9,��
2017/07/06,13:40,0.967,1.530,1.012,1.821,1.261,0.528,0.956,0.882,��쓌,6.3,��
2017/07/06,13:50,0.969,1.531,1.015,1.821,1.259,0.529,0.957,0.882,��,6.9,��
2017/07/06,14:00,0.968,1.531,1.014,1.820,1.259,0.528,0.957,0.882,��쓌,7.1,��
2017/07/06,14:10,0.968,1.531,1.014,1.819,1.264,0.529,0.956,0.882,��,7.2,��
2017/07/06,14:20,0.969,1.532,1.016,1.821,1.260,0.528,0.957,0.882,��,7.8,��
2017/07/06,14:30,0.968,1.532,1.019,1.821,1.260,0.529,0.956,0.883,��,7.5,��
2017/07/06,14:40,0.969,1.534,1.017,1.824,1.262,0.529,0.957,0.884,��쓌,7.7,��
2017/07/06,14:50,0.969,1.536,1.020,1.822,1.266,0.531,0.956,0.884,��쓌,7.6,��
2017/07/06,15:00,0.969,1.533,1.018,1.826,1.263,0.529,0.957,0.884,��쓌,8.3,��
2017/07/06,15:10,0.970,1.534,1.018,1.828,1.263,0.529,0.956,0.882,��,8.4,��
2017/07/06,15:20,0.970,1.536,1.020,1.828,1.263,0.531,0.957,0.882,��,7.5,��
2017/07/06,15:30,0.973,1.536,1.019,1.829,1.265,0.529,0.959,0.884,��,7.6,��
2017/07/06,15:40,0.971,1.535,1.019,1.829,1.264,0.530,0.958,0.884,��,7.7,��
2017/07/06,15:50,0.970,1.539,1.020,1.827,1.266,0.529,0.958,0.883,��,8.9,��
2017/07/06,16:00,0.971,1.537,1.022,1.829,1.266,0.529,0.958,0.883,��,7.8,��
2017/07/06,16:10,0.970,1.537,1.021,1.828,1.266,0.529,0.956,0.884,��,8.1,��
2017/07/06,16:20,0.973,1.537,1.022,1.830,1.265,0.530,0.958,0.884,��,7.6,��
2017/07/06,16:30,0.973,1.534,1.022,1.831,1.266,0.529,0.956,0.884,��,6.7,��
2017/07/06,16:40,0.974,1.539,1.022,1.830,1.264,0.528,0.958,0.883,��쓌,5.7,��
2017/07/06,16:50,0.973,1.540,1.020,1.830,1.264,0.528,0.957,0.882,��,6.3,��
2017/07/06,17:00,0.974,1.541,1.021,1.829,1.268,0.528,0.958,0.882,��,6.5,��
2017/07/06,17:10,0.974,1.540,1.024,1.830,1.269,0.530,0.957,0.883,��,6.6,��
2017/07/06,17:20,0.974,1.540,1.023,1.828,1.267,0.528,0.957,0.884,��,7.2,��
2017/07/06,17:30,0.971,1.542,1.024,1.831,1.270,0.527,0.957,0.883,��,6.9,��
2017/07/06,17:40,0.972,1.543,1.022,1.833,1.269,0.529,0.959,0.884,��,7.2,��
2017/07/06,17:50,0.973,1.543,1.025,1.832,1.269,0.529,0.957,0.885,��,6.8,��
2017/07/06,18:00,0.974,1.543,1.024,1.832,1.269,0.529,0.958,0.885,��,6.8,��
2017/07/06,18:10,0.972,1.547,1.026,1.829,1.271,0.529,0.956,0.884,��,7.3,��
2017/07/06,18:20,0.973,1.543,1.024,1.832,1.268,0.530,0.956,0.884,��,7.0,��
2017/07/06,18:30,0.972,1.541,1.026,1.832,1.270,0.529,0.958,0.885,��,6.9,��
2017/07/06,18:40,0.974,1.543,1.026,1.829,1.268,0.529,0.958,0.886,��,6.9,��
2017/07/06,18:50,0.972,1.544,1.026,1.831,1.268,0.529,0.955,0.885,��,6.2,��
2017/07/06,19:00,0.972,1.542,1.026,1.832,1.270,0.530,0.956,0.886,��,6.9,��
2017/07/06,19:10,0.971,1.543,1.027,1.833,1.271,0.527,0.960,0.885,��,6.4,��
2017/07/06,19:20,0.974,1.546,1.028,1.830,1.272,0.528,0.957,0.885,��,6.4,��
2017/07/06,19:30,0.975,1.545,1.025,1.832,1.269,0.529,0.959,0.885,��,6.8,��
2017/07/06,19:40,0.976,1.541,1.027,1.830,1.270,0.529,0.958,0.887,��,6.4,��
2017/07/06,19:50,0.977,1.544,1.028,1.830,1.270,0.530,0.958,0.884,��,5.9,��
2017/07/06,20:00,0.973,1.545,1.025,1.830,1.267,0.530,0.959,0.885,��,5.8,��
2017/07/06,20:10,0.973,1.545,1.027,1.831,1.272,0.530,0.959,0.886,��,6.2,��
2017/07/06,20:20,0.973,1.545,1.028,1.832,1.269,0.529,0.958,0.885,��,6.2,��
2017/07/06,20:30,0.973,1.542,1.026,1.834,1.267,0.529,0.960,0.886,��쐼,6.1,��
2017/07/06,20:40,0.974,1.544,1.027,1.832,1.271,0.529,0.959,0.885,��,5.4,��
2017/07/06,20:50,0.974,1.545,1.028,1.832,1.270,0.529,0.958,0.887,��쐼,5.3,��
2017/07/06,21:00,0.973,1.546,1.029,1.835,1.269,0.529,0.959,0.886,��쐼,5.4,��
2017/07/06,21:10,0.973,1.547,1.027,1.833,1.271,0.529,0.960,0.887,��쐼,4.6,��
2017/07/06,21:20,0.974,1.542,1.028,1.834,1.269,0.528,0.959,0.887,��쐼,5.0,��
2017/07/06,21:30,0.976,1.543,1.027,1.836,1.269,0.529,0.960,0.886,��쐼,4.9,��
2017/07/06,21:40,0.976,1.546,1.028,1.833,1.270,0.528,0.959,0.888,��,5.2,��
2017/07/06,21:50,0.976,1.544,1.026,1.834,1.271,0.528,0.960,0.885,��쐼,5.0,��
2017/07/06,22:00,0.975,1.545,1.025,1.835,1.270,0.530,0.960,0.887,��쐼,4.6,��
2017/07/06,22:10,0.974,1.540,1.025,1.833,1.270,0.528,0.961,0.885,��쐼,3.5,��
2017/07/06,22:20,0.977,1.543,1.026,1.836,1.269,0.529,0.960,0.885,�쐼,2.9,��
2017/07/06,22:30,0.976,1.544,1.025,1.833,1.272,0.529,0.959,0.885,�쐼,2.6,��
2017/07/06,22:40,0.977,1.544,1.025,1.833,1.270,0.530,0.959,0.885,�쐼,2.3,��
2017/07/06,22:50,0.978,1.545,1.026,1.834,1.269,0.531,0.960,0.888,���쐼,2.3,��
2017/07/06,23:00,0.975,1.543,1.027,1.834,1.270,0.530,0.959,0.884,���쐼,1.9,��
2017/07/06,23:10,0.976,1.545,1.026,1.832,1.268,0.531,0.961,0.886,���쐼,2.3,��
2017/07/06,23:20,0.974,1.543,1.026,1.833,1.271,0.529,0.960,0.885,��,2.0,��
2017/07/06,23:30,0.976,1.541,1.026,1.832,1.269,0.530,0.961,0.885,��,2.2,��
2017/07/06,23:40,0.978,1.543,1.025,1.835,1.269,0.529,0.960,0.886,��,2.6,��
2017/07/06,23:50,0.977,1.543,1.028,1.833,1.270,0.531,0.960,0.885,�k��,1.7,��
